Weather History for KSUE - October, 2012

Change the Weather History Date:

Tuesday, October 9, 2012

  Actual Average Record
Temperature  
Mean Temperature 47 °F -  
Max Temperature 53 °F 57 °F 77 °F (1918)
Min Temperature 41 °F 40 °F 22 °F (1989)
Degree Days  
Heating Degree Days 18    
Moisture  
Dew Point 36 °F    
Average Humidity 67    
Maximum Humidity 100    
Minimum Humidity 38    
Precipitation  
Precipitation 0.08 in - - ()
Sea Level Pressure  
Sea Level Pressure 29.77 in    
Wind  
Wind Speed 15 mph (SW)    
Max Wind Speed 18 mph    
Max Gust Speed 28 mph    
Visibility 10 miles    
Events      
Averages and records for this station are not official NWS values.
T = Trace of Precipitation, MM = Missing Value Source: NWS Daily Summary

Daily Weather History Graph

Daily Weather History Graph

Search for Another Location

Airport or City:

Trip Planner

Search our weather history database for the weather conditions in past years. The results will help you decide how hot, cold, wet, or windy it might be!

Date:

Astronomy

Oct. 09, 2012 Rise Set
Actual Time 6:58 AM CDT 6:14 PM CDT
Civil Twilight 6:28 AM CDT 6:43 PM CDT
Nautical Twilight 5:54 AM CDT 7:17 PM CDT
Astronomical Twilight 5:20 AM CDT 7:51 PM CDT
Moon 12:19 AM CDT (10/9) 2:55 PM CDT (10/9)
Length of Visible Light 12h 15m
Length of Day
11h 16m
Last Quarter, 36% of the Moon is Illuminated
Oct 9
Last Quarter
Oct 15
New
Oct 21
First Quarter
Oct 29
Full
Nov 6
Last Quarter

Hourly Weather History & Observations

Time (CDT) Temp. Windchill Dew Point Humidity Pressure Visibility Wind Dir Wind Speed Gust Speed Precip Events Conditions
12:15 AM 53.6 °F - 28.4 °F 38% 29.79 in 10.0 mi South 17.3 mph 23.0 mph N/A   Mostly Cloudy
12:35 AM 53.6 °F - 28.4 °F 38% 29.79 in 10.0 mi South 17.3 mph 26.5 mph N/A   Scattered Clouds
12:55 AM 53.6 °F - 28.4 °F 38% 29.78 in 10.0 mi South 18.4 mph 25.3 mph N/A   Clear
1:15 AM 53.6 °F - 28.4 °F 38% 29.78 in 10.0 mi South 17.3 mph 23.0 mph N/A   Clear
1:35 AM 53.6 °F - 28.4 °F 38% 29.78 in 10.0 mi SSW 15.0 mph 23.0 mph N/A   Clear
1:55 AM 53.6 °F - 30.2 °F 41% 29.79 in 10.0 mi SSW 13.8 mph 21.9 mph N/A   Partly Cloudy
2:15 AM 53.6 °F - 30.2 °F 41% 29.77 in 10.0 mi SSW 17.3 mph 25.3 mph N/A   Clear
2:55 AM 53.6 °F - 30.2 °F 41% 29.77 in 10.0 mi SSW 18.4 mph 26.5 mph N/A   Mostly Cloudy
3:15 AM 53.6 °F - 30.2 °F 41% 29.77 in 10.0 mi SSW 16.1 mph 21.9 mph N/A   Overcast
3:35 AM 53.6 °F - 30.2 °F 41% 29.77 in 10.0 mi SW 18.4 mph 27.6 mph N/A   Overcast
4:15 AM 53.6 °F - 32.0 °F 44% 29.77 in 10.0 mi SSW 16.1 mph 26.5 mph N/A   Overcast
4:35 AM 53.6 °F - 32.0 °F 44% 29.77 in 10.0 mi SSW 18.4 mph 23.0 mph N/A   Overcast
4:55 AM 53.6 °F - 32.0 °F 44% 29.77 in 10.0 mi SSW 15.0 mph 21.9 mph N/A   Overcast
5:15 AM 51.8 °F - 33.8 °F 50% 29.78 in 10.0 mi SW 15.0 mph - N/A   Overcast
5:35 AM 50.0 °F - 35.6 °F 58% 29.78 in 10.0 mi SSW 15.0 mph 20.7 mph N/A   Overcast
5:55 AM 48.2 °F - 37.4 °F 66% 29.78 in 10.0 mi SSW 12.7 mph - N/A   Overcast
6:35 AM 48.2 °F - 37.4 °F 66% 29.79 in 10.0 mi SSW 10.4 mph - N/A   Overcast
6:55 AM 48.2 °F - 37.4 °F 66% 29.79 in 10.0 mi SSW 10.4 mph - N/A   Overcast
7:15 AM 48.2 °F - 37.4 °F 66% 29.79 in 10.0 mi SSW 11.5 mph 17.3 mph N/A   Overcast
7:35 AM 48.2 °F - 37.4 °F 66% 29.79 in 10.0 mi SSW 11.5 mph - N/A   Overcast
7:55 AM 48.2 °F - 37.4 °F 66% 29.80 in 10.0 mi SSW 10.4 mph - N/A   Overcast
8:15 AM 48.2 °F - 39.2 °F 71% 29.80 in 10.0 mi SSW 10.4 mph - N/A   Overcast
8:35 AM 46.4 °F 41.1 °F 39.2 °F 76% 29.80 in 10.0 mi SSW 11.5 mph - 0.01 in   Overcast
2:55 PM 46.4 °F 40.4 °F 42.8 °F 87% 29.72 in 7.0 mi SW 13.8 mph - N/A   Overcast
4:15 PM 46.4 °F 40.7 °F 46.4 °F 100% 29.71 in 7.0 mi SW 12.7 mph - N/A   Unknown
4:35 PM 46.4 °F 40.7 °F 44.6 °F 93% 29.72 in 8.0 mi SW 12.7 mph 19.6 mph N/A   Overcast
4:55 PM 46.4 °F 39.5 °F 44.6 °F 93% 29.72 in 7.0 mi SW 17.3 mph 21.9 mph N/A   Mostly Cloudy
5:15 PM 44.6 °F 38.1 °F 41.0 °F 87% 29.75 in 9.0 mi West 13.8 mph 20.7 mph N/A   Overcast
5:35 PM 44.6 °F 37.2 °F 39.2 °F 81% 29.76 in 8.0 mi West 17.3 mph 20.7 mph N/A   Overcast
5:55 PM 42.8 °F 34.8 °F 37.4 °F 81% 29.78 in 9.0 mi West 17.3 mph 25.3 mph 0.05 in   Mostly Cloudy
6:15 PM 42.8 °F 35.1 °F 39.2 °F 87% 29.78 in 7.0 mi West 16.1 mph 20.7 mph 0.01 in   Overcast
6:35 PM 41.0 °F 35.8 °F 37.4 °F 87% 29.77 in 10.0 mi WSW 8.1 mph - 0.02 in   Overcast
6:55 PM 41.0 °F 35.8 °F 35.6 °F 81% 29.77 in 10.0 mi West 8.1 mph - 0.02 in   Overcast
7:15 PM 41.0 °F 35.8 °F 37.4 °F 87% 29.77 in 10.0 mi WSW 8.1 mph - N/A   Overcast
7:35 PM 41.0 °F 36.4 °F 37.4 °F 87% 29.77 in 10.0 mi West 6.9 mph - N/A   Overcast
7:55 PM 42.8 °F 37.0 °F 37.4 °F 81% 29.77 in 10.0 mi WSW 10.4 mph - N/A   Mostly Cloudy
8:15 PM 42.8 °F 38.0 °F 37.4 °F 81% 29.77 in 10.0 mi West 8.1 mph 16.1 mph N/A   Scattered Clouds
8:35 PM 42.8 °F 37.0 °F 37.4 °F 81% 29.77 in 10.0 mi West 10.4 mph 17.3 mph N/A   Clear
8:55 PM 42.8 °F 38.0 °F 37.4 °F 81% 29.77 in 10.0 mi West 8.1 mph - N/A   Clear
9:15 PM 42.8 °F 37.0 °F 37.4 °F 81% 29.78 in 10.0 mi West 10.4 mph - N/A   Clear
9:35 PM 42.8 °F 36.2 °F 37.4 °F 81% 29.77 in 10.0 mi West 12.7 mph 21.9 mph N/A   Clear
9:55 PM 42.8 °F 35.8 °F 37.4 °F 81% 29.77 in 10.0 mi West 13.8 mph 19.6 mph N/A   Clear
10:15 PM 42.8 °F 36.6 °F 37.4 °F 81% 29.77 in 10.0 mi West 11.5 mph - N/A   Scattered Clouds
10:35 PM 42.8 °F 37.0 °F 37.4 °F 81% 29.77 in 10.0 mi WSW 10.4 mph - N/A   Scattered Clouds